Flag for Romania Weather past 2 weeks in Brăila, Romania

Now
76 °F

Overcast.


Feels Like: 78 °F
Forecast: 57 / 81 °F
Wind: 3 mph from East

Location: Galati

Current Time: May 25, 2015 at 7:06:24 PM

Latest Report: May 25, 2015 at 6:00 PM


Visibility: 13 mi

Pressure: 29.78 "Hg

Humidity: 60%

Dew point: 61 °F

Location of BrăilaLocation

Historic Weather in Brăila — Graph

°F

Brăila temperature yesterday

Maximum temperature yesterday: 84 °F (at 5:00 PM)
Minimum temperature yesterday: 58 °F (at 7:00 AM)
Average temperature yesterday: 72 °F

Past Weeks' High & Low Weather Summary

 TemperatureHumidityPressure
High84 °F (May 23, 3:00 PM)99% (May 20, 6:00 AM)30.27 "Hg (May 20, 6:00 AM)
Low51 °F (May 11, 6:00 AM)22% (May 13, 4:00 PM)29.68 "Hg (May 14, 7:00 PM)
Average68 °F56%29.99 "Hg
* Reported May 10 5:00 PM — May 25 5:00 PM, Brăila, Weather by CustomWeather, © 2015

Note: Actual official high and low records may vary slightly from our data, if they occured in-between our weather recording intervals... More about our weather records

Advertising

Brăila weather history for previous 24 hours

 ConditionsComfort  
Time TempWeatherWind HumidityBarometerVisibility
5:00 PM
Mon, May 25
78 °FOvercast.3 mph56%29.80 "Hg12 mi
4:00 PM80 °FOvercast.3 mph59%29.81 "Hg12 mi
3:00 PM78 °FOvercast.3 mph59%29.83 "Hg12 mi
2:00 PM77 °FOvercast.3 mph64%29.84 "Hg6 mi
1:00 PM75 °FOvercast.2 mph66%29.85 "Hg6 mi
12:00 PM74 °FOvercast.1 mph66%29.85 "Hg6 mi
11:00 AM71 °FOvercast.1 mph70%29.86 "Hg6 mi
10:00 AM69 °FOvercast.1 mph76%29.86 "Hg6 mi
9:00 AM67 °FOvercast.2 mph83%29.85 "Hg6 mi
8:00 AM64 °FOvercast.2 mph91%29.85 "Hg6 mi
7:00 AM63 °FOvercast.2 mph95%29.85 "Hg6 mi
5:00 AM64 °FOvercast.1 mph96%29.84 "Hg6 mi
4:00 AM64 °FPassing clouds.2 mph94%29.85 "Hg6 mi
3:00 AM66 °FPassing clouds.1 mph88%29.85 "Hg12 mi
2:00 AM67 °FPassing clouds.1 mph86%29.85 "Hg12 mi
1:00 AM69 °FPassing clouds.1 mph80%29.84 "Hg12 mi
12:00 AM70 °FPassing clouds.1 mph81%29.83 "Hg12 mi
11:00 PM
Sun, May 24
71 °FPassing clouds.1 mph71%29.83 "Hg12 mi
10:00 PM73 °FPassing clouds.2 mph60%29.83 "Hg12 mi
9:00 PM75 °FOvercast.1 mph54%29.81 "Hg12 mi
8:00 PM79 °FOvercast.2 mph46%29.80 "Hg12 mi
7:00 PM82 °FOvercast.2 mph37%29.80 "Hg12 mi
Weather by CustomWeather, © 2015

See weather overviewHow to use our weather pages